This is the latest recevied weather packets stored in our database for station/object HS3MXC-4. If no packets are shown the sender has not sent any weather packets the latest 10 day(s).
| Time | Temp. | Humidity | Pressure | Rain* | Wind** | Luminosity | Snow |
|---|---|---|---|---|---|---|---|
| 1777802463 | 31.11° C | 73% | 992 hPa | - | - | - | - |
| 1777801551 | 31.11° C | 71% | 992 hPa | - | - | - | - |
| 1777800628 | 31.67° C | 70% | 991 hPa | - | - | - | - |
| 1777800589 | 31.67° C | 69% | 991 hPa | - | - | - | - |
| 1777799677 | 33.89° C | 64% | 991 hPa | - | - | - | - |
| 1777798766 | 37.22° C | 70% | 990 hPa | - | - | - | - |
| 1777797854 | 37.78° C | 71% | 990 hPa | - | - | - | - |
| 1777796942 | 39.44° C | 70% | 990 hPa | - | - | - | - |
| 1777796030 | 39.44° C | 69% | 990 hPa | - | - | - | - |
| 1777795118 | 39.44° C | 71% | 990 hPa | - | - | - | - |
| 1777794206 | 39.44° C | 72% | 990 hPa | - | - | - | - |
| 1777793294 | 39.44° C | 70% | 990 hPa | - | - | - | - |
| 1777792382 | 39.44° C | 72% | 990 hPa | - | - | - | - |
| 1777791470 | 38.89° C | 73% | 991 hPa | - | - | - | - |
| 1777790558 | 38.89° C | 76% | 991 hPa | - | - | - | - |
| 1777789646 | 38.33° C | 77% | 992 hPa | - | - | - | - |
| 1777788734 | 38.33° C | 78% | 992 hPa | - | - | - | - |
| 1777787822 | 37.78° C | 80% | 992 hPa | - | - | - | - |
| 1777786910 | 37.78° C | 83% | 993 hPa | - | - | - | - |
| 1777785998 | 37.22° C | 87% | 993 hPa | - | - | - | - |
| 1777785086 | 37.22° C | 88% | 994 hPa | - | - | - | - |
| 1777784174 | 36.67° C | 89% | 994 hPa | - | - | - | - |
| 1777783262 | 36.11° C | 91% | 994 hPa | - | - | - | - |
| 1777782351 | 36.11° C | 94% | 995 hPa | - | - | - | - |
| 1777781439 | 35.56° C | 96% | 995 hPa | - | - | - | - |
* Rain since midnight (hover to see other rain measurements)
** Current wind speed in m/s (hover to see current wind gust speed)